Overview Statistics Trail Chart Weather Telemetry Raw packets
 

This is the latest recevied weather packets stored in our database for station/object NL3D. If no packets are shown the sender has not sent any weather packets the latest 10 day(s).

<< 47 48 49 50 51 52 53 >>
Time Temp. Humidity Pressure Rain* Wind** Luminosity Snow
1777373285 4.44° C 78% 1008.2 hPa 0 mm - 0 W/m² -
1777372981 4.44° C 78% 1008.2 hPa 0 mm - 0 W/m² -
1777372676 4.44° C 78% 1008.3 hPa 0 mm - 0 W/m² -
1777372375 4.44° C 77% 1007.9 hPa 0 mm - 0 W/m² -
1777372074 4.44° C 78% 1008.3 hPa 0 mm - 0 W/m² -
1777371770 4.44° C 78% 1008.2 hPa 0 mm - 0 W/m² -
1777371467 4.44° C 79% 1008.2 hPa 0 mm - 0 W/m² -
1777371163 4.44° C 78% 1008 hPa 0 mm - 0 W/m² -
1777370859 4.44° C 78% 1007.9 hPa 0 mm - 0 W/m² -
1777370555 4.44° C 78% 1008 hPa 0 mm - 0 W/m² -
1777370251 4.44° C 78% 1008.2 hPa 0 mm - 0 W/m² -
1777369947 4.44° C 78% 1008.1 hPa 0 mm - 0 W/m² -
1777369644 4.44° C 77% 1008.1 hPa 0 mm - 0 W/m² -
1777369343 5° C 76% 1007.9 hPa 0 mm - 0 W/m² -
1777369040 5° C 76% 1008.1 hPa 0 mm - 0 W/m² -
1777368738 5° C 76% 1008.3 hPa 0 mm - 0 W/m² -
1777368433 5° C 75% 1008.1 hPa 0 mm - 0 W/m² -
1777368130 5.56° C 73% 1008 hPa 0 mm - 0 W/m² -
1777367827 5.56° C 72% 1007.9 hPa 0 mm - 0 W/m² -
1777367523 6.11° C 70% 1007.9 hPa 0 mm - 0 W/m² -
1777367219 6.11° C 70% 1007.8 hPa 0 mm - 0 W/m² -
1777366914 6.11° C 70% 1007.5 hPa 0 mm - 0 W/m² -
1777366613 6.11° C 70% 1007.7 hPa 0 mm - 0 W/m² -
1777366313 6.11° C 66% 1007.8 hPa 0 mm - 0 W/m² -
1777366010 6.67° C 68% 1007.6 hPa 0 mm - 0 W/m² -

* Rain latest hour (hover to see other rain measurements)
** Current wind speed in m/s (hover to see current wind gust speed)